Location: Newark
(40.4167°N, 3.7000°W)
Time: 16:29:04
(UTC+00:00)

ISS - Visible Passes

Search period start: 19 July 2019 00:00
Search period end: 29 July 2019 00:00
Orbit: 409 x 418 km, 51.6° (Epoch: 20 July)

Date Brightness Start Highest point End Pass type
(mag) Time Alt. Az. Time Alt. Az. Time Alt. Az.
19 Jul -0.3 00:17:23 10° NNW 00:18:49 12° N 00:20:16 10° NNE visible
19 Jul -1.3 01:53:39 10° NNW 01:56:26 24° NNE 01:59:11 10° E visible
19 Jul -3.7 03:30:03 10° WNW 03:33:17 53° SW 03:36:31 10° SE visible
19 Jul -3.8 20:11:23 10° SW 20:14:40 62° SE 20:17:59 10° ENE visible
19 Jul -1.1 21:48:54 10° WNW 21:51:35 22° NNW 21:54:18 10° NNE visible
19 Jul -0.3 23:27:48 10° NNW 23:29:13 12° N 23:30:38 10° NNE visible
20 Jul -0.9 01:04:32 10° NNW 01:06:56 18° NNE 01:09:06 11° ENE visible
20 Jul -2.1 02:40:42 10° NW 02:45:51 24° ESE 02:47:20 10° SE visible
20 Jul -1.7 04:19:42 10° WSW 04:20:13 10° SW 04:20:45 10° SW visible
20 Jul -1.7 20:59:06 10° W 21:02:07 31° NNW 21:05:10 10° NE visible
20 Jul -0.5 22:37:58 10° NW 22:39:37 13° N 22:41:15 10° NNE visible
21 Jul -0.7 00:15:24 10° NNW 00:17:23 15° NNE 00:18:00 14° NNE visible
21 Jul -2.6 20:09:28 10° WSW 20:12:44 48° NNW 20:15:59 10° NE visible
21 Jul -0.6 21:48:01 10° NW 21:50:01 15° NNW 21:52:03 10° NNE visible
21 Jul -0.5 23:26:10 10° NNW 23:27:47 13° N 23:29:23 10° NE visible
22 Jul -0.8 20:58:01 10° WNW 21:00:27 18° NNW 21:02:52 10° NNE visible
22 Jul -0.5 22:36:44 10° NNW 22:38:09 12° N 22:39:34 10° NNE visible
23 Jul -0.6 00:13:07 10° NNW 00:13:58 15° NNW 00:13:58 15° NNW visible
23 Jul -1.2 20:08:07 10° W 20:10:55 24° NNW 20:13:43 10° NNE visible
23 Jul -0.6 21:47:02 10° NNW 21:48:31 12° N 21:49:58 10° NNE visible
23 Jul -0.9 23:23:57 10° NNW 23:25:55 17° N 23:25:55 17° N visible
24 Jul -0.7 20:57:07 10° NW 20:58:51 13° N 21:00:36 10° NNE visible
24 Jul -0.9 22:34:45 10° NNW 22:36:38 14° NNE 22:37:56 12° NE visible
25 Jul -0.9 20:07:05 10° NW 20:09:13 16° NNW 20:11:21 10° NNE visible
25 Jul -0.8 21:45:25 10° NNW 21:46:59 13° N 21:48:32 10° NE visible
25 Jul -0.9 23:21:35 10° NW 23:22:49 18° NNW 23:22:49 18° NNW visible
26 Jul -0.8 20:55:53 10° NNW 20:57:18 12° N 20:58:43 10° NNE visible
26 Jul -1.4 22:32:23 10° NNW 22:34:56 20° NNE 22:34:56 20° NNE visible
27 Jul -0.8 20:06:04 10° NNW 20:07:37 13° N 20:09:08 10° NNE visible
27 Jul -1.1 21:43:10 10° NNW 21:45:21 16° NNE 21:47:04 12° NE visible
27 Jul -0.7 23:19:16 10° NW 23:19:53 15° NW 23:19:53 15° NW visible
28 Jul -1.0 20:53:54 10° NNW 20:55:42 14° N 20:57:29 10° NE visible
28 Jul -1.8 22:29:57 10° NW 22:32:03 28° NNW 22:32:03 28° NNW visible
